Regional Weather Roundup
Issued by NWS Jackson, KY

Home | Current Version | Previous Version | Text Only | Print | Product List | Glossary On
Versions: 1 2 3 4 5 6 7 8 9 10 11 12 13 14 15 16 17 18 19 20 21 22 23 24 25 26 27 28 29 30 31 32 33 34 35 36 37 38 39 40 41 42 43 44 45 46 47 48 49 50
000
ASUS43 KJKL 201310
RWRJKL

EAST KENTUCKY HOURLY WEATHER ROUNDUP
NATIONAL WEATHER SERVICE JACKSON KY
900 AM EDT SUN AUG 20 2017

NOTE: "FAIR" INDICATES FEW OR NO CLOUDS BELOW 12,000 FEET WITH
NO SIGNIFICANT WEATHER AND/OR OBSTRUCTIONS TO VISIBILITY.

* THESE REPORTS ARE NOT UNDER NWS QUALITY CONTROL AND MAY NOT
  REPORT WEATHER SUCH AS PRECIPITATION AND FOG.

KYZ079-080-083-085-087-088-110-112-115-119-120-201400
...EASTERN KENTUCKY...

CITY           SKY/WX    TMP DP  RH WIND       PRES   REMARKS
JACKSON        SUNNY     71  67  87 VRB3      30.13R
LONDON         SUNNY     71  67  87 CALM      30.13R
SOMERSET*      SUNNY     70  68  94 CALM      30.13R
MONTICELLO*    SUNNY     71  68  90 W3        30.13R
WILLIAMSBURG*  CLOUDY    66  66 100 SE3       30.13R VSB 1/4
MIDDLESBORO*   CLOUDY    66  66 100 CALM      30.15R FOG
HARLAN APT*    CLOUDY    64  63  94 CALM      30.16S
PIKE CO APT*   FOG       67  67 100 S3        30.14R VSB<1/4
BIG SANDY APT* SUNNY     73  70  91 CALM      30.14R
MOREHEAD APT*  SUNNY     72  68  88 S5        30.12S
$$

KYZ035-036-041-042-044-050-067-078-099-201400
...CENTRAL KENTUCKY...

CITY           SKY/WX    TMP DP  RH WIND       PRES   REMARKS
MT STERLING*   SUNNY     73  68  83 SW3       30.12S
FLEMING/MASON* SUNNY     74  69  84 S5        30.11R
DANVILLE*      SUNNY     72  68  88 S6        30.12R
LEXINGTON      SUNNY     74  67  78 S5        30.11R
FRANKFORT      SUNNY     75  67  76 CALM      30.08R
LOUISVILLE     MOSUNNY   77  70  79 CALM      30.08R
LEBANON*         N/A     75  66  73 S7        30.09S
GLASGOW*       SUNNY     73  70  91 CALM      30.10R
BOWLING GREEN  SUNNY     75  72  90 CALM      30.09R
$$

KYZ091>093-OHZ055-061-077-WVZ005-015-034-035-042-201400
...SOUTHERN OHIO/WEST VIRGINIA...

CITY           SKY/WX    TMP DP  RH WIND       PRES   REMARKS
COVINGTON      SUNNY     74  70  87 SW3       30.09R
COLUMBUS       MOSUNNY   71  66  84 SE6       30.10R
DAYTON         PTSUNNY   72  64  76 SE8       30.10R
WILMINGTON     SUNNY     70  69  97 E3        30.09S
HUNTINGTON     SUNNY     73  68  84 SW3       30.10R
CHARLESTON     MOSUNNY   70  67  90 N3        30.11S
PINEVILLE*     CLOUDY    65  65  97 MISG      30.21S FOG
BECKLEY        SUNNY     72  65  78 CALM      30.20R
BLUEFIELD      SUNNY     69  63  81 CALM      30.22R
LOGAN CO APT*    N/A     68  68 100 CALM      30.14S
$$

VAZ002-007-008-TNZ017-027-036-066-071-201400
...SOUTHWEST VIRGINIA/EAST TENNESSEE...

CITY           SKY/WX    TMP DP  RH WIND       PRES   REMARKS
WISE*          SUNNY     73  68  83 CALM      30.21S
JONESVILLE*      N/A     72  66  83 CALM      30.17R
ABINGDON*      SUNNY     71  67  88 E6        30.18S
BRISTOL        SUNNY     69  66  90 NE3       30.16R
MORRISTOWN*    SUNNY     73  68  83 VRB3      30.13S
SEVIERVILLE*   SUNNY     70  64  83 CALM      30.12S
KNOXVILLE      MOSUNNY   72  66  81 CALM      30.11R
LAFOLLETTE*    MOSUNNY   70  68  94 CALM      30.17R
OAK RIDGE      CLOUDY    70  69  97 CALM      30.13R
CROSSVILLE     SUNNY     73  67  81 CALM      30.16R
NASHVILLE      MOSUNNY   76  71  85 CALM      30.09R
$$

...KEY TO REMARKS...
VSB - VISIBILITY IN MILES
WCI - WIND CHILL INDEX
HX  - HEAT INDEX

$$



USA.gov is the U.S. government's official web portal to all federal, state and local government web resources and services.